Home   Weather   Wheaton   Past weeks

Flag for USA Past Weather in Wheaton, Illinois, USA — Yesterday and Last 2 Weeks

Now
24 °F

Clear.


Feels Like: 12 °F
Forecast: 19 / 26 °F
Wind: 14 mph from West

Location: Dupage Airport

Current Time: Dec 7, 2016 at 6:49:26 am

Latest Report: Dec 7, 2016 at 5:52 am


Visibility: 10 mi

Pressure: 30.07 "Hg

Humidity: 75%

Dew Point: 17 °F

Location of WheatonLocation

Past Weather in Wheaton — Graph

°F

Wheaton Temperature Yesterday

Maximum temperature yesterday: 34 °F (at 10:02 am)
Minimum temperature yesterday: 25 °F (at 10:52 pm)
Average temperature yesterday: 31 °F

High & Low Weather Summary for the Past Weeks

 TemperatureHumidityPressure
High55 °F (Nov 29, 12:52 pm)100% (Dec 6, 10:02 am)30.37 "Hg (Dec 6, 10:02 am)
Low24 °F (Dec 7, 4:52 am)55% (Nov 22, 6:52 pm)29.16 "Hg (Nov 28, 8:52 pm)
Average37 °F81%29.98 "Hg
* Reported Nov 22 4:52 am — Dec 7 4:52 am, Wheaton, Weather by CustomWeather, © 2016

Note: Actual official high and low records may vary slightly from our data, if they occured in-between our weather recording intervals... More about our weather records

Advertising

Wheaton Weather History for the Previous 24 Hours

Scroll right to see more
 ConditionsComfort  
Time TempWeatherWind HumidityBarometerVisibility
4:52 am
Wed, Dec 7
24 °FClear.13 mph75%30.07 "Hg10 mi
3:52 am25 °FClear.16 mph69%30.04 "Hg10 mi
2:52 am25 °FClear.17 mph69%30.04 "Hg10 mi
1:52 am25 °FClear.14 mph72%30.03 "Hg10 mi
12:52 am26 °FClear.14 mph69%30.02 "Hg10 mi
11:52 pm
Tue, Dec 6
26 °FClear.14 mph71%30.00 "Hg10 mi
10:52 pm25 °FClear.10 mph75%29.98 "Hg10 mi
9:52 pm26 °FPassing clouds.10 mph74%29.98 "Hg10 mi
8:52 pm27 °FClear.14 mph72%29.98 "Hg10 mi
7:52 pm28 °FClear.17 mph69%29.96 "Hg10 mi
6:52 pm29 °FClear.15 mph72%29.93 "Hg10 mi
5:52 pm30 °FClear.16 mph69%29.90 "Hg10 mi
4:52 pm32 °FClear.14 mph73%29.87 "Hg10 mi
3:52 pm34 °FPassing clouds.17 mph76%29.84 "Hg10 mi
2:52 pm34 °FLow clouds.14 mph88%29.81 "Hg7 mi
1:52 pm34 °FFog.13 mph88%29.80 "Hg2 mi
12:52 pm33 °FFog.10 mph96%29.78 "Hg4 mi
12:02 pm33 °FFog.8 mph100%29.75 "Hg2 mi
11:52 am33 °FFog.10 mph100%29.78 "Hg1 mi
11:03 am34 °FFog.6 mph100%29.75 "Hg1 mi
10:52 am34 °FFog.5 mph100%29.78 "Hg1 mi
10:02 am34 °FFog.3 mph100%29.77 "Hg0 mi
8:52 am33 °FFog.8 mph92%29.80 "Hg0 mi
7:52 am31 °FIce fog.3 mph96%29.80 "Hg0 mi
6:52 am30 °FIce fog.6 mph96%29.80 "Hg0 mi
Weather by CustomWeather, © 2016

See weather overviewHow to use our weather pages